,,PA_Meas_PMT16A,,PR_Meas_QMR101_102,,RH_Meas_QMH101,,SR_Meas_QMS101,,TA_Meas_QMH101,,GenWind,,GenWind,
time,status,PA,status,PR,status,RH,status,SR,status,TA,status,DirAvg,status,SpdAvg,
2015-07-13, 15:17:04,VALID,914.364,VALID,0,VALID,99.5923,VALID,77.1427,VALID,20.2293,VALID,161,VALID,0.247656,
2015-07-13, 15:18:04,VALID,914.202,VALID,0,VALID,99.638,VALID,73.9195,VALID,20.1888,VALID,279,VALID,2.03828,
2015-07-13, 15:19:04,VALID,914.3,VALID,0,VALID,99.6609,VALID,86.5976,VALID,20.1108,VALID,319,VALID,1.0043,
2015-07-13, 15:20:04,VALID,914.203,VALID,0,VALID,99.6533,VALID,69.8367,VALID,20.1303,VALID,235,VALID,1.24844,
2015-07-13, 15:26:04,VALID,914.26,VALID,0,VALID,99.7143,VALID,66.721,VALID,20.0328,VALID,27,VALID,1.88398,
2015-07-13, 15:27:04,VALID,914.211,VALID,0,VALID,99.6609,VALID,89.4985,VALID,20.1108,VALID,108,VALID,1.22148,
2015-07-13, 15:28:04,VALID,914.311,VALID,0,VALID,99.6914,VALID,69.9442,VALID,20.1303,VALID,360,VALID,2.63672,
2015-07-13, 15:29:04,VALID,914.274,VALID,0,VALID,99.7372,VALID,66.3986,VALID,20.0733,VALID,264,VALID,2.95039,
2015-07-13, 15:30:04,VALID,914.19,VALID,0,VALID,99.76,VALID,75.3162,VALID,20.0343,VALID,217,VALID,2.42969,
2015-07-13, 15:31:04,VALID,914.282,VALID,0,VALID,99.7219,VALID,77.8948,VALID,20.0523,VALID,26,VALID,1.18242,
2015-07-13, 15:32:04,VALID,914.268,VALID,0,VALID,99.6914,VALID,83.6967,VALID,20.1123,VALID,312,VALID,0.425781,
2015-07-13, 15:33:04,VALID,914.232,VALID,0,VALID,99.6914,VALID,90.358,VALID,20.1108,VALID,30,VALID,0.0640625,
2015-07-13, 15:34:04,VALID,914.32,VALID,0,VALID,99.7067,VALID,90.7878,VALID,20.1303,VALID,170,VALID,1.32734,
2015-07-13, 15:35:04,VALID,914.256,VALID,0,VALID,99.7372,VALID,114.962,VALID,20.1318,VALID,71,VALID,2.54219,
2015-07-13, 15:36:04,VALID,914.286,VALID,0,VALID,99.7067,VALID,129.144,VALID,20.1708,VALID,293,VALID,1.64141,
2015-07-13, 15:37:04,VALID,914.286,VALID,0,VALID,99.7295,VALID,146.872,VALID,20.1693,VALID,180,VALID,1.375,
2015-07-13, 15:38:04,VALID,914.322,VALID,0,VALID,99.7067,VALID,125.706,VALID,20.2083,VALID,21,VALID,2.01758,
2015-07-13, 15:39:04,VALID,914.32,VALID,0,VALID,99.6914,VALID,121.301,VALID,20.2473,VALID,314,VALID,0.720312,
2015-07-13, 15:40:04,VALID,914.355,VALID,0,VALID,99.7067,VALID,117.003,VALID,20.2684,VALID,355,VALID,1.41172,
2015-07-13, 15:41:04,VALID,914.278,VALID,0,VALID,99.7905,VALID,123.88,VALID,20.2083,VALID,1,VALID,5.76406,
2015-07-13, 15:42:04,VALID,914.339,VALID,0,VALID,99.7829,VALID,119.475,VALID,20.1693,VALID,266,VALID,2.22266,
2015-07-13, 15:43:04,VALID,914.373,VALID,0,VALID,99.76,VALID,126.673,VALID,20.2083,VALID,50,VALID,1.52617,
2015-07-13, 15:44:04,VALID,914.353,VALID,0,VALID,99.7372,VALID,105.937,VALID,20.1888,VALID,70,VALID,1.43242,
2015-07-13, 15:45:04,VALID,914.33,VALID,0,VALID,99.7524,VALID,104.325,VALID,20.2293,VALID,236,VALID,1.89531,
2015-07-13, 15:46:04,VALID,914.341,VALID,0,VALID,99.7448,VALID,149.88,VALID,20.2278,VALID,82,VALID,1.64727,
2015-07-13, 15:47:04,VALID,914.285,VALID,0,VALID,99.6838,VALID,164.063,VALID,20.2668,VALID,107,VALID,0.760547,
2015-07-13, 15:48:04,VALID,914.295,VALID,0,VALID,99.7143,VALID,172.873,VALID,20.2863,VALID,227,VALID,0.991406,
2015-07-13, 15:49:04,VALID,914.385,VALID,0,VALID,99.7372,VALID,192.427,VALID,20.3058,VALID,50,VALID,1.34727,
2015-07-13, 15:50:04,VALID,914.306,VALID,0,VALID,99.7524,VALID,156.327,VALID,20.3058,VALID,208,VALID,1.86523,
2015-07-13, 15:51:04,VALID,914.322,VALID,0,VALID,99.76,VALID,115.069,VALID,20.3253,VALID,342,VALID,2.06562,
2015-07-13, 15:52:04,VALID,914.418,VALID,0,VALID,99.7143,VALID,116.681,VALID,20.3448,VALID,295,VALID,0.878125,
2015-07-13, 15:53:04,VALID,914.445,VALID,0,VALID,99.7067,VALID,104.863,VALID,20.3643,VALID,38,VALID,1.52813,
2015-07-13, 15:54:04,VALID,914.407,VALID,0,VALID,99.699,VALID,110.664,VALID,20.4228,VALID,31,VALID,0.888672,
2015-07-13, 15:55:04,VALID,914.392,VALID,0,VALID,99.6914,VALID,108.193,VALID,20.4423,VALID,24,VALID,0.679297,
2015-07-13, 15:56:04,VALID,914.391,VALID,0,VALID,99.7067,VALID,107.871,VALID,20.3643,VALID,246,VALID,1.225,
2015-07-13, 15:57:04,VALID,914.432,VALID,0,VALID,99.699,VALID,105.507,VALID,20.3643,VALID,216,VALID,0.473047,
2015-07-13, 15:58:04,VALID,914.445,VALID,0,VALID,99.6914,VALID,102.821,VALID,20.3643,VALID,3,VALID,1.27539,
2015-07-13, 15:59:04,VALID,914.427,VALID,0,VALID,99.638,VALID,107.226,VALID,20.4033,VALID,359,VALID,0.683594,
2015-07-13, 16:00:04,VALID,914.405,VALID,0,VALID,99.6533,VALID,102.069,VALID,20.4033,VALID,45,VALID,0,
2015-07-13, 16:01:04,VALID,914.388,VALID,0,VALID,99.6076,VALID,105.722,VALID,20.4618,VALID,23,VALID,0,
2015-07-13, 16:02:04,VALID,914.403,VALID,0,VALID,99.6304,VALID,110.772,VALID,20.3448,VALID,296,VALID,1.76211,
2015-07-13, 16:03:04,VALID,914.355,VALID,0,VALID,99.5237,VALID,97.2342,VALID,20.4423,VALID,30,VALID,1.08086,
2015-07-13, 16:04:04,VALID,914.369,VALID,0,VALID,99.5084,VALID,95.5152,VALID,20.4813,VALID,30,VALID,0,
2015-07-13, 16:05:04,VALID,914.368,VALID,0,VALID,99.5161,VALID,91.325,VALID,20.5204,VALID,31,VALID,1.44727,
2015-07-13, 16:06:04,VALID,914.337,VALID,0,VALID,99.5161,VALID,93.7961,VALID,20.4813,VALID,341,VALID,0.896094,
2015-07-13, 16:07:04,VALID,914.368,VALID,0,VALID,99.4627,VALID,104.54,VALID,20.4813,VALID,15,VALID,1.54805,
2015-07-13, 16:08:04,VALID,914.332,VALID,0,VALID,99.3941,VALID,102.929,VALID,20.4228,VALID,337,VALID,0.967969,
2015-07-13, 16:09:04,VALID,914.352,VALID,0,VALID,99.3102,VALID,102.929,VALID,20.4423,VALID,281,VALID,0,
2015-07-13, 16:10:04,VALID,914.322,VALID,0,VALID,99.2874,VALID,104.863,VALID,20.4423,VALID,343,VALID,0,
2015-07-13, 16:11:04,VALID,914.351,VALID,0,VALID,99.234,VALID,105.83,VALID,20.4439,VALID,8,VALID,0,
2015-07-13, 16:12:04,VALID,914.294,VALID,0,VALID,99.2188,VALID,105.722,VALID,20.4228,VALID,168,VALID,0,
2015-07-13, 16:13:04,VALID,914.279,VALID,0,VALID,99.1501,VALID,104.325,VALID,20.4033,VALID,30,VALID,0.00195313,
2015-07-13, 16:14:04,VALID,914.273,VALID,0,VALID,99.173,VALID,100.995,VALID,20.4813,VALID,55,VALID,0,
2015-07-13, 16:15:04,VALID,914.251,VALID,0,VALID,99.1654,VALID,98.7384,VALID,20.4813,VALID,21,VALID,0,
2015-07-13, 16:16:04,VALID,914.255,VALID,0,VALID,99.1578,VALID,95.3003,VALID,20.5204,INVALID,360,VALID,0,
2015-07-13, 16:17:04,VALID,914.267,VALID,0,VALID,99.112,VALID,91.2175,VALID,20.5009,INVALID,360,VALID,0,
2015-07-13, 16:18:04,VALID,914.31,VALID,0,VALID,99.0358,VALID,87.5645,VALID,20.4813,VALID,225,VALID,1.03242,
2015-07-13, 16:19:04,VALID,914.318,VALID,0,VALID,98.9596,VALID,84.8785,VALID,20.4618,VALID,255,VALID,0.136719,
2015-07-13, 16:20:04,VALID,914.33,VALID,0,VALID,98.9748,VALID,82.2999,VALID,20.4829,VALID,319,VALID,0,
2015-07-13, 16:21:04,VALID,914.318,VALID,0,VALID,98.9901,VALID,80.9032,VALID,20.4423,VALID,35,VALID,0,
2015-07-13, 16:22:04,VALID,914.29,VALID,0,VALID,98.891,VALID,78.6469,VALID,20.4439,VALID,68,VALID,0.551953,
2015-07-13, 16:23:04,VALID,914.292,VALID,0,VALID,98.9138,VALID,76.2832,VALID,20.4618,VALID,11,VALID,1.02461,
2015-07-13, 16:24:04,VALID,914.331,VALID,0,VALID,98.8757,VALID,74.027,VALID,20.4423,VALID,254,VALID,0,
2015-07-13, 16:25:04,VALID,914.28,VALID,0,VALID,98.8986,VALID,72.3079,VALID,20.4423,VALID,9,VALID,0,
2015-07-13, 16:26:04,VALID,914.324,VALID,0,VALID,98.9138,VALID,70.5888,VALID,20.4813,VALID,37,VALID,1.14375,
2015-07-13, 16:27:04,VALID,914.302,VALID,0,VALID,98.9367,VALID,68.7623,VALID,20.4813,VALID,38,VALID,0,
2015-07-13, 16:28:04,VALID,914.297,VALID,0,VALID,98.9748,VALID,67.2582,VALID,20.4813,VALID,23,VALID,0.141406,
2015-07-13, 16:29:04,VALID,914.306,VALID,0,VALID,98.9901,VALID,65.6465,VALID,20.4408,VALID,8,VALID,0.00195313,
2015-07-13, 16:30:04,VALID,914.291,VALID,0,VALID,99.0587,VALID,63.9275,VALID,20.4618,VALID,34,VALID,0.213281,
